• In Czech Republic
  • List of Countries
  • For 7 days
  • Water Temperature
  • Satellite Maps
  • Weather Map
  • Weather Widgets
  • user-avatar
    Login

    Hourly Weather Vanadzor

    Today, 20 October, Saturday

    Time Temperature Precipitation Wind Pressure Humidity
    00:00 +9°C° 0 mm 0 mps 638 mmHg 81%
    01:00 +9°C° 0 mm 0 mps 637 mmHg 80%
    02:00 +8°C° 0 mm 0 mps 637 mmHg 79%
    03:00 +8°C° 0 mm 0 mps 637 mmHg 76%
    04:00 +8°C° 0.1 mm 0 mps 637 mmHg 73%
    05:00 +9°C° 0.1 mm 1 mps 637 mmHg 70%
    06:00 +9°C° 0.1 mm 1 mps 637 mmHg 67%
    07:00 +11°C° 0 mm 1 mps 638 mmHg 62%
    08:00 +12°C° 0 mm 1 mps 638 mmHg 57%
    09:00 +15°C° 0 mm 1 mps 639 mmHg 50%
    10:00 +16°C° 0.1 mm 2 mps 639 mmHg 49%
    11:00 +17°C° 0.1 mm 2 mps 639 mmHg 48%
    12:00 +18°C° 0.1 mm 2 mps 639 mmHg 47%
    13:00 +18°C° 0.1 mm 2 mps 638 mmHg 47%
    14:00 +18°C° 0.1 mm 2 mps 638 mmHg 47%
    15:00 +18°C° 0.1 mm 2 mps 638 mmHg 47%
    16:00 +16°C° 0.3 mm 1 mps 637 mmHg 54%
    17:00 +14°C° 0.3 mm 1 mps 637 mmHg 60%
    18:00 +13°C° 0.3 mm 1 mps 636 mmHg 67%
    19:00 +12°C° 0.2 mm 1 mps 636 mmHg 68%
    20:00 +12°C° 0.2 mm 1 mps 636 mmHg 68%
    21:00 +12°C° 0.2 mm 1 mps 636 mmHg 69%
    22:00 +11°C° 0.1 mm 1 mps 636 mmHg 70%
    23:00 +11°C° 0.1 mm 1 mps 636 mmHg 70%

    Tomorrow, 21 October, Sunday

    Time Temperature Precipitation Wind Pressure Humidity
    00:00 +11°C° 0.1 mm 1 mps 636 mmHg 71%
    01:00 +10°C° 0.1 mm 1 mps 636 mmHg 72%
    02:00 +10°C° 0.1 mm 1 mps 636 mmHg 72%
    03:00 +10°C° 0.1 mm 1 mps 636 mmHg 73%
    04:00 +10°C° 0 mm 1 mps 636 mmHg 74%
    05:00 +9°C° 0 mm 1 mps 635 mmHg 75%
    06:00 +9°C° 0 mm 1 mps 635 mmHg 76%
    07:00 +11°C° 0 mm 1 mps 636 mmHg 70%
    08:00 +13°C° 0 mm 1 mps 637 mmHg 64%
    09:00 +14°C° 0 mm 1 mps 637 mmHg 57%
    10:00 +16°C° 0 mm 2 mps 637 mmHg 53%
    11:00 +17°C° 0 mm 2 mps 638 mmHg 49%
    12:00 +18°C° 0 mm 2 mps 638 mmHg 45%
    13:00 +18°C° 0 mm 2 mps 638 mmHg 44%
    14:00 +18°C° 0 mm 2 mps 637 mmHg 44%
    15:00 +18°C° 0 mm 2 mps 637 mmHg 44%
    16:00 +16°C° 0.1 mm 2 mps 637 mmHg 50%
    17:00 +15°C° 0.1 mm 1 mps 636 mmHg 56%
    18:00 +13°C° 0.1 mm 1 mps 636 mmHg 62%
    19:00 +13°C° 0 mm 1 mps 636 mmHg 63%
    20:00 +12°C° 0 mm 1 mps 636 mmHg 64%
    21:00 +12°C° 0 mm 1 mps 636 mmHg 65%
    22:00 +11°C° 0.1 mm 1 mps 636 mmHg 65%
    23:00 +11°C° 0.1 mm 1 mps 636 mmHg 66%

    Day after tomorrow, 22 October, Monday

    Time Temperature Precipitation Wind Pressure Humidity
    00:00 +11°C° 0.1 mm 1 mps 636 mmHg 67%
    01:00 +11°C° 0.1 mm 1 mps 636 mmHg 67%
    02:00 +11°C° 0.1 mm 1 mps 636 mmHg 67%
    03:00 +11°C° 0.1 mm 1 mps 636 mmHg 67%
    04:00 +10°C° 0 mm 1 mps 636 mmHg 68%
    05:00 +10°C° 0 mm 1 mps 636 mmHg 70%
    06:00 +10°C° 0 mm 1 mps 636 mmHg 71%
    07:00 +11°C° 0.1 mm 1 mps 637 mmHg 66%
    08:00 +13°C° 0.1 mm 1 mps 637 mmHg 61%
    09:00 +14°C° 0.1 mm 1 mps 638 mmHg 57%
    10:00 +15°C° 0.1 mm 2 mps 638 mmHg 55%
    11:00 +16°C° 0.1 mm 2 mps 638 mmHg 52%
    12:00 +17°C° 0.1 mm 2 mps 638 mmHg 50%
    13:00 +17°C° 0.1 mm 2 mps 638 mmHg 50%
    14:00 +17°C° 0.1 mm 2 mps 638 mmHg 50%
    15:00 +17°C° 0.1 mm 2 mps 638 mmHg 50%
    16:00 +15°C° 0.1 mm 1 mps 637 mmHg 56%
    17:00 +14°C° 0.1 mm 1 mps 637 mmHg 62%
    18:00 +11°C° 0.1 mm 0 mps 636 mmHg 68%
    19:00 +11°C° 0.1 mm 0 mps 637 mmHg 69%
    20:00 +12°C° 0.1 mm 1 mps 637 mmHg 70%
    21:00 +11°C° 0.1 mm 1 mps 637 mmHg 71%
    22:00 +11°C° 0.2 mm 1 mps 637 mmHg 71%
    23:00 +11°C° 0.2 mm 1 mps 637 mmHg 72%

    23 October, Tuesday

    Time Temperature Precipitation Wind Pressure Humidity
    00:00 +11°C° 0.2 mm 1 mps 637 mmHg 72%
    01:00 +11°C° 0.1 mm 1 mps 637 mmHg 74%
    02:00 +10°C° 0.1 mm 1 mps 637 mmHg 76%
    03:00 +10°C° 0.1 mm 1 mps 637 mmHg 78%
    04:00 +9°C° 0 mm 1 mps 636 mmHg 78%
    05:00 +9°C° 0 mm 1 mps 636 mmHg 79%
    06:00 +9°C° 0 mm 1 mps 636 mmHg 80%
    07:00 +11°C° 0 mm 1 mps 637 mmHg 73%
    08:00 +12°C° 0 mm 1 mps 638 mmHg 66%
    09:00 +14°C° 0 mm 2 mps 638 mmHg 59%
    10:00 +15°C° 0 mm 2 mps 638 mmHg 56%
    11:00 +16°C° 0 mm 2 mps 638 mmHg 52%
    12:00 +17°C° 0 mm 3 mps 638 mmHg 48%
    13:00 +17°C° 0.2 mm 3 mps 638 mmHg 49%
    14:00 +16°C° 0.2 mm 3 mps 637 mmHg 50%
    15:00 +16°C° 0.2 mm 3 mps 637 mmHg 50%
    16:00 +15°C° 0.3 mm 2 mps 637 mmHg 57%
    17:00 +13°C° 0.3 mm 1 mps 636 mmHg 64%
    18:00 +12°C° 0.3 mm 1 mps 636 mmHg 71%
    19:00 +11°C° 0.1 mm 1 mps 636 mmHg 71%
    20:00 +11°C° 0.1 mm 1 mps 636 mmHg 72%
    21:00 +11°C° 0.1 mm 1 mps 636 mmHg 72%
    22:00 +10°C° 0 mm 1 mps 636 mmHg 72%
    23:00 +10°C° 0 mm 1 mps 636 mmHg 73%

    24 October, Wednesday

    Time Temperature Precipitation Wind Pressure Humidity
    00:00 +9°C° 0 mm 2 mps 636 mmHg 73%
    01:00 +9°C° 0 mm 2 mps 636 mmHg 74%
    02:00 +8°C° 0 mm 2 mps 635 mmHg 74%
    03:00 +8°C° 0 mm 2 mps 635 mmHg 74%
    04:00 +8°C° 0 mm 2 mps 635 mmHg 74%
    05:00 +8°C° 0 mm 2 mps 635 mmHg 74%
    06:00 +8°C° 0 mm 2 mps 635 mmHg 74%
    07:00 +9°C° 0 mm 2 mps 635 mmHg 69%
    08:00 +12°C° 0 mm 2 mps 635 mmHg 63%
    09:00 +12°C° 0 mm 3 mps 636 mmHg 57%
    10:00 +13°C° 0 mm 3 mps 636 mmHg 55%
    11:00 +14°C° 0 mm 3 mps 636 mmHg 52%
    12:00 +17°C° 0 mm 3 mps 635 mmHg 49%
    13:00 +16°C° 0.2 mm 3 mps 635 mmHg 50%
    14:00 +16°C° 0.2 mm 3 mps 634 mmHg 52%
    15:00 +15°C° 0.2 mm 4 mps 634 mmHg 53%
    16:00 +14°C° 0.2 mm 3 mps 633 mmHg 58%
    17:00 +12°C° 0.2 mm 3 mps 633 mmHg 63%
    18:00 +12°C° 0.2 mm 2 mps 633 mmHg 68%
    19:00 +12°C° 0.3 mm 2 mps 632 mmHg 69%
    20:00 +12°C° 0.3 mm 2 mps 632 mmHg 70%
    21:00 +12°C° 0.3 mm 2 mps 632 mmHg 71%
    22:00 +10°C° 0.2 mm 2 mps 632 mmHg 73%
    23:00 +10°C° 0.2 mm 2 mps 631 mmHg 74%

    25 October, Thursday

    Time Temperature Precipitation Wind Pressure Humidity
    00:00 +10°C° 0.2 mm 2 mps 631 mmHg 76%
    01:00 +10°C° 0.2 mm 2 mps 630 mmHg 77%
    02:00 +9°C° 0.2 mm 2 mps 630 mmHg 78%
    03:00 +9°C° 0.2 mm 2 mps 630 mmHg 78%
    04:00 +9°C° 0.8 mm 3 mps 630 mmHg 79%
    05:00 +9°C° 0.8 mm 3 mps 630 mmHg 80%
    06:00 +9°C° 0.8 mm 3 mps 630 mmHg 81%
    07:00 +11°C° 0 mm 4 mps 630 mmHg 75%
    08:00 +12°C° 0 mm 4 mps 631 mmHg 70%
    09:00 +13°C° 0 mm 4 mps 631 mmHg 65%
    10:00 +14°C° 0.1 mm 5 mps 631 mmHg 61%
    11:00 +15°C° 0.1 mm 5 mps 631 mmHg 57%
    12:00 +16°C° 0.1 mm 6 mps 630 mmHg 53%
    13:00 +16°C° 0.2 mm 6 mps 630 mmHg 53%
    14:00 +16°C° 0.2 mm 6 mps 629 mmHg 52%
    15:00 +16°C° 0.2 mm 6 mps 629 mmHg 52%
    16:00 +15°C° 0.3 mm 5 mps 629 mmHg 57%
    17:00 +13°C° 0.3 mm 4 mps 628 mmHg 61%
    18:00 +12°C° 0.3 mm 3 mps 628 mmHg 66%
    19:00 +12°C° 0.2 mm 3 mps 628 mmHg 67%
    20:00 +12°C° 0.2 mm 3 mps 628 mmHg 67%
    21:00 +11°C° 0.2 mm 3 mps 628 mmHg 68%
    22:00 +11°C° 0.2 mm 4 mps 628 mmHg 69%
    23:00 +11°C° 0.2 mm 4 mps 628 mmHg 69%
    Show more